2024-174G

Last updated on Fri Oct 04 2024 00:02:05 GMT+0000 (Coordinated Universal Time)

1 61443U 24174G 24277.57702956 .00487128 67534-4 30395-2 0 9990 2 61443 97.4315 283.2229 0167274 359.9492 0.1718 15.59833023 1103
UTC large
Height (km)
Speed (km/s)
/
Latitude / Longitude
Inclination (degrees)
Orbital Period (minutes)
Azimuth
Elevation
Range (km)
Doppler Factor

Next 0 passes for location: London (51.5072 / 0.1276)

Sorry there are no passes over London.